Weather in Komatsu

Japan     36°18′30″N   136°24′14″E
temp.,
°C
wind,
m/s
gust,
m/s
humid.,
%
clouds,
%
prec.,
mm/h
press.,
hPa
HPBL,
m
29 november, mon
mon2900:00+1se22625 0.0 103218
03:00+2sse2253100 0.0 103217
06:00+2se2248100 0.0 103017
09:00+7s2353100 0.0 1030118
12:00+11ssw2437100 0.0 1028594
15:00+10sw125499 0.0 1027142
18:00+5se226669 0.0 102820
21:00+4se3261100 0.0 102938
30 november, tue
tue3000:00+4se325836 0.0 102838
03:00+4se32573 0.0 102635
06:00+4se32655 0.0 102439
09:00+9sse2468100 0.0 1022157
12:00+12sse4135677 0.0 10181197
15:00+12sse61562100 0.0 1011914
18:00+11sse51371100 0.0 1011826
21:00+12sse62075100 0.7 10061502
1 december, wed
wed100:00+13s102776100 3.8 10012235
03:00+10wsw51197100 26.1 10051297
06:00+6sw51379100 6.2 10091495
09:00+4sw61287100 7.8 10101340
12:00+4wsw7147799 1.9 10101759
15:00+3wsw71476100 3.3 10101809
18:00+2w71379100 1.5 10121431
21:00+2w61280100 3.5 10131321
2 december, thu
thu200:00+2w71278100 2.2 10131328
03:00+1wnw61184100 4.8 10161140
06:00+2wnw2778100 1.1 1018473
09:00+3sse118581 1.9 1020283
12:00+6ssw256592 0.3 10181350
15:00+5s2478100 0.3 1018847
18:00+4sse358662 0.1 1020160
21:00+1sse34832 0.1 102191
3 december, fri
fri300:00+1sse358315 0.0 102193
03:00+3sse358121 0.0 1019131
06:00+2sse46834 0.0 1019119
09:00+6s38746 0.0 1019741
12:00+8ssw486687 0.0 10171260
15:00+5sse379090 0.8 1017415
18:00+3sse348975 0.1 101671
21:00+3sse3597100 13.9 1017198